{"data":{"norad_id":66627,"intl_designator":"2025-271L","name":"STARLINK-35904","alt_names":[],"object_type":"PAYLOAD","status":"ACTIVE","operator":null,"country":"US","launch_date":"2025-11-23","launch_site_code":"AFWTR","launch_vehicle":null,"mission":null,"orbit_class":"UNKNOWN","rcs_meters":null,"size_class":null,"mass_kg":null,"dimensions":null,"purposes":["comms"],"wikipedia_slug":null,"has_3d_model":false,"image_url":null,"decayed_at":null,"tle_current":{"epoch":"2026-05-25T03:52:22.315296Z","epoch_age_seconds":57236,"freshness":"FRESH","line1":"1 66627U 25271L   26145.16136939  .00010203  00000+0  35632-3 0  9997","line2":"2 66627  53.1580 144.8160 0001324  88.6371 271.4782 15.30183721 29236","mean_motion":15.30183721,"eccentricity":0.0001324,"inclination_deg":53.158,"raan_deg":144.816,"arg_perigee_deg":88.6371,"mean_anomaly_deg":271.4782,"bstar":0.00035632,"rev_number":2923,"period_min":94.106346854804,"perigee_km":474.35628576043,"apogee_km":476.17106625944,"semimajor_km":6853.4006760099,"source":"CELESTRAK","updated_at":"2026-05-25T13:38:21.296088Z"}}}